FW9327 Weather Reports


time (UTC)temp
C
wind
direction
speed
KPH
gust
KPH
rain 1hr
cm
rain 24hr
cm
rain mn
cm
humidity
%
barometer
mb
20260504014558 15 5 0.0 4.8 0.00 0.28 0.28 59 1005.3
20260504013054 16 5 3.2 8.0 0.00 0.28 0.28 57 1005.1
20260504011552 16 5 1.6 6.4 0.00 0.28 0.28 56 1005.2
20260504010100 16 5 3.2 9.7 0.00 0.28 0.28 55 1005.1
20260504004550 17 5 1.6 8.0 0.00 0.28 0.28 53 1005.0
20260504003055 17 5 3.2 17.7 0.00 0.28 0.28 52 1005.2
20260504001550 17 5 3.2 17.7 0.00 0.28 0.28 50 1005.3
20260504000137 18 5 3.2 14.5 0.00 0.28 0.28 50 1005.1
20260503234559 18 360 4.8 24.1 0.00 0.28 0.28 48 1005.1
20260503233051 18 5 3.2 19.3 0.00 0.28 0.28 47 1005.1
20260503231551 19 9 4.8 27.4 0.00 0.28 0.28 47 1005.0
20260503230055 19 360 6.4 19.3 0.00 0.28 0.28 45 1005.3
20260503224552 19 360 6.4 19.3 0.00 0.28 0.28 45 1005.3
20260503223051 19 9 6.4 17.7 0.00 0.28 0.28 45 1005.5
20260503221558 19 5 6.4 20.9 0.00 0.28 0.28 45 1005.6
20260503220057 18 360 6.4 17.7 0.00 0.28 0.28 46 1005.7
20260503214553 18 360 4.8 25.7 0.00 0.28 0.28 46 1005.8
20260503213049 18 360 9.7 24.1 0.00 0.28 0.28 44 1006.1
20260503211619 19 5 8.0 19.3 0.00 0.28 0.28 44 1006.5
20260503210052 18 360 8.0 29.0 0.00 0.28 0.28 46 1006.8
20260503204558 17 360 4.8 27.4 0.00 0.28 0.28 44 1007.2
20260503203107 19 5 8.0 30.6 0.00 0.28 0.28 42 1007.4
20260503201554 19 5 11.3 29.0 0.00 0.28 0.28 43 1007.5
20260503200048 18 5 9.7 32.2 0.00 0.28 0.28 46 1007.9
20260503194557 18 5 11.3 29.0 0.00 0.28 0.28 46 1007.8
20260503193055 17 5 9.7 25.7 0.00 0.28 0.28 51 1008.1
20260503191554 16 5 6.4 25.7 0.00 0.28 0.28 56 1008.1
20260503190056 15 360 9.7 25.7 0.00 0.28 0.28 62 1008.5
20260503184604 14 360 9.7 30.6 0.03 0.28 0.28 65 1008.9
20260503183056 13 360 8.0 25.7 0.03 0.28 0.28 70 1009.0
20260503181604 12 360 4.8 19.3 0.05 0.28 0.28 79 1009.3
20260503180052 10 360 4.8 16.1 0.08 0.28 0.28 85 1010.0
20260503174552 9 360 4.8 17.7 0.08 0.25 0.25 87 1010.2
20260503173059 8 9 4.8 16.1 0.10 0.25 0.25 87 1011.1
20260503171549 8 9 3.2 17.7 0.08 0.23 0.23 88 1011.6
20260503081553 5 5 3.2 6.4 0.00 0.00 0.00 66 1014.1
20260503071600 6 5 1.6 8.0 0.00 0.00 0.00 64 1014.1
20260503060107 5 0 0.0 3.2 0.00 0.00 0.00 64 1014.8
20260503054555 6 0 1.6 4.8 0.00 0.00 0.00 62 1014.8
20260503053053 6 5 1.6 4.8 0.00 0.00 0.00 61 1015.0
20260503051550 6 9 1.6 6.4 0.00 0.00 0.00 60 1015.1
20260503050051 6 5 1.6 8.0 0.00 0.00 0.00 60 1015.1
20260503044558 6 9 1.6 6.4 0.00 0.00 0.00 61 1015.1
20260503043057 6 5 1.6 6.4 0.00 0.00 0.00 60 1015.1
20260503041553 6 5 1.6 6.4 0.00 0.00 0.00 60 1015.2
20260503040057 7 5 1.6 4.8 0.00 0.00 0.00 60 1015.2
20260503034551 7 9 1.6 4.8 0.00 0.00 0.00 60 1015.2
20260503033104 7 5 1.6 4.8 0.00 0.00 0.00 59 1015.4
20260503031555 7 9 1.6 4.8 0.00 0.00 0.00 59 1015.4
20260503030056 7 9 1.6 3.2 0.00 0.00 0.00 59 1015.5
20260503024554 7 9 1.6 4.8 0.00 0.00 0.00 59 1015.5
20260503023100 6 5 0.0 1.6 0.00 0.00 0.00 62 1015.5
20260503021555 7 0 0.0 0.0 0.00 0.00 0.00 61 1015.4
20260503020057 7 0 0.0 0.0 0.00 0.00 0.00 58 1015.4